DLH7JW EPWA-EDDF

Flight info

Callsign DLH7JW
Flight time 1h 27m
Altitude 38000
Route LOLSI DCT DIBLO DCT INDIG DCT KORUP DCT SULED DCT ROBEL/N0391F240 T178 KERAX KERAX5D
Aircraft A20N/M-SDE2E3FGHIRWXY/LB1

Departure

Time 2026-05-07 19:16
Airport Warsaw Chopin Airport (EPWA)

Arrival

Time 2026-05-07 20:44
Airport Frankfurt Main Airport (EDDF)
Time Latitude Longitude Altitude Speed Heading
2026-05-07 18:54 52.17337 20.96865 361 ft 0 kts 81°
2026-05-07 19:08 52.17334 20.96836 363 ft 3 kts 81°
2026-05-07 19:08 52.17331 20.96804 361 ft 3 kts 81°
2026-05-07 19:08 52.17328 20.96773 361 ft 3 kts 81°
2026-05-07 19:09 52.17324 20.96741 361 ft 3 kts 86°
2026-05-07 19:09 52.17328 20.96710 361 ft 3 kts 115°
2026-05-07 19:09 52.17339 20.96684 364 ft 3 kts 144°
2026-05-07 19:09 52.17347 20.96676 364 ft 0 kts 154°
2026-05-07 19:12 52.17326 20.96693 361 ft 7 kts 154°
2026-05-07 19:12 52.17265 20.96746 365 ft 12 kts 151°
2026-05-07 19:13 52.17181 20.96821 361 ft 15 kts 151°
2026-05-07 19:13 52.17079 20.96910 365 ft 18 kts 153°
2026-05-07 19:13 52.16961 20.97010 362 ft 19 kts 153°
2026-05-07 19:13 52.16842 20.97115 362 ft 20 kts 151°
2026-05-07 19:14 52.16710 20.97234 362 ft 23 kts 150°
2026-05-07 19:14 52.16579 20.97361 362 ft 21 kts 130°
2026-05-07 19:14 52.16515 20.97583 364 ft 23 kts 114°
2026-05-07 19:14 52.16455 20.97803 363 ft 17 kts 117°
2026-05-07 19:15 52.16405 20.97809 358 ft 6 kts 223°
2026-05-07 19:15 52.16361 20.97764 357 ft 9 kts 210°
2026-05-07 19:15 52.16308 20.97694 362 ft 10 kts 264°
2026-05-07 19:15 52.16328 20.97589 356 ft 10 kts 293°
2026-05-07 19:16 52.16408 20.97307 362 ft 60 kts 294°
2026-05-07 19:16 52.16673 20.96366 366 ft 120 kts 294°
2026-05-07 19:16 52.17086 20.94912 521 ft 149 kts 295°
2026-05-07 19:16 52.17487 20.93396 1155 ft 148 kts 295°
2026-05-07 19:17 52.17897 20.91824 1774 ft 149 kts 296°
2026-05-07 19:17 52.18279 20.90232 2308 ft 156 kts 280°
2026-05-07 19:17 52.18261 20.88433 2873 ft 165 kts 264°
2026-05-07 19:17 52.18128 20.86527 3409 ft 178 kts 264°
2026-05-07 19:18 52.18000 20.84461 3936 ft 190 kts 268°
2026-05-07 19:18 52.18003 20.82173 4411 ft 212 kts 270°
2026-05-07 19:18 52.17985 20.79669 4957 ft 232 kts 269°
2026-05-07 19:18 52.17962 20.76886 5505 ft 252 kts 269°
2026-05-07 19:19 52.17951 20.74008 6270 ft 261 kts 269°
2026-05-07 19:19 52.17948 20.71028 7195 ft 263 kts 269°
2026-05-07 19:19 52.17950 20.68033 8088 ft 267 kts 269°
2026-05-07 19:19 52.17952 20.64993 8993 ft 271 kts 269°
2026-05-07 19:20 52.17955 20.61897 9892 ft 275 kts 269°
2026-05-07 19:20 52.17956 20.58734 10530 ft 288 kts 269°
2026-05-07 19:20 52.17955 20.55343 10804 ft 311 kts 269°
2026-05-07 19:20 52.17953 20.51711 11257 ft 327 kts 268°
2026-05-07 19:21 52.17952 20.47983 12048 ft 330 kts 268°
2026-05-07 19:21 52.17951 20.44218 12869 ft 334 kts 268°
2026-05-07 19:21 52.17949 20.40412 13686 ft 338 kts 268°
2026-05-07 19:21 52.17944 20.36564 14411 ft 341 kts 267°
2026-05-07 19:22 52.17937 20.32674 15120 ft 345 kts 267°
2026-05-07 19:22 52.17932 20.30029 15601 ft 347 kts 267°
2026-05-07 19:22 52.17922 20.26079 16299 ft 351 kts 267°
2026-05-07 19:22 52.17911 20.22080 16989 ft 354 kts 267°
2026-05-07 19:23 52.17899 20.18055 17683 ft 358 kts 267°
2026-05-07 19:23 52.17885 20.13981 18361 ft 361 kts 266°
2026-05-07 19:23 52.17870 20.09869 18947 ft 364 kts 266°
2026-05-07 19:23 52.17853 20.05722 19551 ft 367 kts 266°
2026-05-07 19:24 52.17835 20.01538 20121 ft 371 kts 265°
2026-05-07 19:24 52.17816 19.97314 20697 ft 374 kts 265°
2026-05-07 19:24 52.17795 19.93054 21263 ft 378 kts 265°
2026-05-07 19:24 52.17766 19.88751 21822 ft 381 kts 263°
2026-05-07 19:25 52.17491 19.84472 22378 ft 380 kts 256°
2026-05-07 19:25 52.17037 19.80219 22945 ft 382 kts 254°
2026-05-07 19:25 52.16559 19.75953 23493 ft 386 kts 254°
2026-05-07 19:25 52.16100 19.71628 23983 ft 389 kts 255°
2026-05-07 19:26 52.15672 19.67327 24482 ft 391 kts 255°
2026-05-07 19:26 52.15246 19.62885 24969 ft 393 kts 255°
2026-05-07 19:26 52.14835 19.58529 25440 ft 395 kts 255°
2026-05-07 19:26 52.14416 19.54094 25900 ft 397 kts 255°
2026-05-07 19:27 52.13989 19.49589 26393 ft 398 kts 255°
2026-05-07 19:27 52.13576 19.45237 27125 ft 393 kts 255°
2026-05-07 19:27 52.13142 19.40737 27294 ft 402 kts 255°
2026-05-07 19:27 52.12708 19.36275 27609 ft 406 kts 255°
2026-05-07 19:28 52.12267 19.31729 28032 ft 408 kts 255°
2026-05-07 19:28 52.11817 19.27104 28425 ft 410 kts 254°
2026-05-07 19:28 52.11374 19.22574 28795 ft 412 kts 254°
2026-05-07 19:28 52.10921 19.17957 29142 ft 415 kts 254°
2026-05-07 19:29 52.10463 19.13311 29495 ft 417 kts 254°
2026-05-07 19:29 52.10001 19.08653 29830 ft 419 kts 254°
2026-05-07 19:29 52.09538 19.03997 30152 ft 422 kts 254°
2026-05-07 19:29 52.09062 18.99236 30460 ft 423 kts 254°
2026-05-07 19:30 52.08586 18.94494 30786 ft 425 kts 254°
2026-05-07 19:30 52.08108 18.89753 31093 ft 426 kts 254°
2026-05-07 19:30 52.07627 18.84994 31475 ft 426 kts 254°
2026-05-07 19:30 52.07146 18.80258 31905 ft 424 kts 254°
2026-05-07 19:31 52.06665 18.75536 32324 ft 423 kts 254°
2026-05-07 19:31 52.06182 18.70826 32724 ft 421 kts 254°
2026-05-07 19:31 52.05715 18.66130 33111 ft 422 kts 256°
2026-05-07 19:31 52.05246 18.61457 33480 ft 418 kts 253°
2026-05-07 19:32 52.04701 18.56823 33845 ft 417 kts 253°
2026-05-07 19:32 52.04160 18.52194 34153 ft 417 kts 253°
2026-05-07 19:32 52.03641 18.47552 34378 ft 419 kts 254°
2026-05-07 19:32 52.03137 18.42886 34573 ft 420 kts 254°
2026-05-07 19:33 52.02641 18.38202 34784 ft 422 kts 255°
2026-05-07 19:33 52.02147 18.33506 34976 ft 423 kts 255°
2026-05-07 19:33 52.01650 18.28797 35168 ft 424 kts 255°
2026-05-07 19:33 52.01149 18.24079 35363 ft 425 kts 255°
2026-05-07 19:34 52.00645 18.19352 35557 ft 426 kts 255°
2026-05-07 19:34 52.00138 18.14622 35736 ft 426 kts 255°
2026-05-07 19:34 51.99627 18.09877 35924 ft 427 kts 255°
2026-05-07 19:34 51.99114 18.05125 36114 ft 428 kts 256°
2026-05-07 19:35 51.98598 18.00367 36291 ft 429 kts 256°
2026-05-07 19:35 51.98079 17.95600 36470 ft 429 kts 256°
2026-05-07 19:35 51.97558 17.90833 36646 ft 430 kts 256°
2026-05-07 19:35 51.97035 17.86059 36849 ft 429 kts 256°
2026-05-07 19:36 51.96513 17.81312 37197 ft 425 kts 256°
2026-05-07 19:36 51.95994 17.76616 37562 ft 421 kts 256°
2026-05-07 19:36 51.95478 17.71965 37840 ft 418 kts 257°
2026-05-07 19:36 51.94963 17.67345 38050 ft 417 kts 257°
2026-05-07 19:37 51.93916 17.58010 38061 ft 425 kts 257°
2026-05-07 19:37 51.92844 17.48520 38061 ft 432 kts 257°
2026-05-07 19:38 51.91749 17.38882 38062 ft 439 kts 257°
2026-05-07 19:38 51.90627 17.29084 38065 ft 445 kts 257°
2026-05-07 19:39 51.89490 17.19233 38066 ft 450 kts 257°
2026-05-07 19:39 51.88330 17.09257 38064 ft 451 kts 257°
2026-05-07 19:40 51.87156 16.99235 38067 ft 451 kts 257°
2026-05-07 19:40 51.85979 16.89265 38066 ft 451 kts 257°
2026-05-07 19:41 51.84793 16.79291 38064 ft 452 kts 257°
2026-05-07 19:41 51.83605 16.69383 38064 ft 452 kts 257°
2026-05-07 19:42 51.82401 16.59416 38061 ft 452 kts 257°
2026-05-07 19:42 51.81186 16.49438 38056 ft 452 kts 257°
2026-05-07 19:43 51.79964 16.39469 38063 ft 452 kts 257°
2026-05-07 19:43 51.78731 16.29492 38062 ft 453 kts 257°
2026-05-07 19:44 51.77490 16.19521 38059 ft 453 kts 257°
2026-05-07 19:44 51.76240 16.09550 38067 ft 453 kts 257°
2026-05-07 19:45 51.74980 15.99575 38066 ft 454 kts 257°
2026-05-07 19:45 51.73711 15.89595 38056 ft 454 kts 257°
2026-05-07 19:46 51.72433 15.79623 38058 ft 454 kts 257°
2026-05-07 19:46 51.71145 15.69643 38062 ft 455 kts 257°
2026-05-07 19:47 51.69847 15.59664 38064 ft 455 kts 257°
2026-05-07 19:47 51.68542 15.49696 38064 ft 455 kts 257°
2026-05-07 19:48 51.67227 15.39722 38065 ft 455 kts 257°
2026-05-07 19:48 51.65906 15.29767 38063 ft 455 kts 257°
2026-05-07 19:49 51.64575 15.19812 38064 ft 455 kts 256°
2026-05-07 19:49 51.63234 15.09854 38064 ft 455 kts 256°
2026-05-07 19:50 51.61886 14.99908 38070 ft 455 kts 256°
2026-05-07 19:50 51.60528 14.89956 38063 ft 455 kts 256°
2026-05-07 19:51 51.59174 14.80068 38069 ft 456 kts 256°
2026-05-07 19:51 51.57713 14.70156 38063 ft 455 kts 254°
2026-05-07 19:52 51.56159 14.60297 38066 ft 456 kts 255°
2026-05-07 19:52 51.54628 14.50419 38066 ft 456 kts 255°
2026-05-07 19:53 51.53070 14.40546 38062 ft 456 kts 255°
2026-05-07 19:53 51.51498 14.30686 38061 ft 456 kts 255°
2026-05-07 19:54 51.49919 14.20845 38065 ft 456 kts 255°
2026-05-07 19:54 51.48329 14.10993 38066 ft 456 kts 255°
2026-05-07 19:55 51.46731 14.01147 38066 ft 456 kts 254°
2026-05-07 19:55 51.45126 13.91314 38067 ft 456 kts 254°
2026-05-07 19:56 51.43509 13.81470 38070 ft 457 kts 254°
2026-05-07 19:56 51.41886 13.71639 38070 ft 456 kts 254°
2026-05-07 19:57 51.40253 13.61810 38072 ft 457 kts 254°
2026-05-07 19:57 51.38611 13.51985 38074 ft 457 kts 254°
2026-05-07 19:58 51.36963 13.42178 38066 ft 457 kts 254°
2026-05-07 19:58 51.35306 13.32372 38066 ft 456 kts 254°
2026-05-07 19:59 51.33672 13.22759 38070 ft 457 kts 254°
2026-05-07 19:59 51.31999 13.12966 38068 ft 457 kts 254°
2026-05-07 20:00 51.30364 13.03450 38072 ft 457 kts 254°
2026-05-07 20:00 51.28674 12.93672 38075 ft 457 kts 254°
2026-05-07 20:01 51.26975 12.83889 38074 ft 457 kts 254°
2026-05-07 20:01 51.25262 12.74084 37916 ft 461 kts 253°
2026-05-07 20:02 51.24398 12.69165 37653 ft 460 kts 254°
2026-05-07 20:02 51.23548 12.64331 37268 ft 456 kts 254°
2026-05-07 20:02 51.22694 12.59490 36883 ft 451 kts 254°
2026-05-07 20:02 51.21846 12.54696 36506 ft 447 kts 254°
2026-05-07 20:03 51.21004 12.49948 36130 ft 443 kts 254°
2026-05-07 20:03 51.20168 12.45245 35760 ft 440 kts 254°
2026-05-07 20:03 51.19326 12.40524 35406 ft 449 kts 254°
2026-05-07 20:03 51.18465 12.35706 35039 ft 453 kts 254°
2026-05-07 20:04 51.17604 12.30903 34691 ft 448 kts 254°
2026-05-07 20:04 51.16753 12.26159 34343 ft 442 kts 254°
2026-05-07 20:04 51.15915 12.21473 33979 ft 438 kts 255°
2026-05-07 20:04 51.15201 12.16777 33552 ft 435 kts 258°
2026-05-07 20:05 51.14573 12.12078 33139 ft 433 kts 259°
2026-05-07 20:05 51.13958 12.07400 32731 ft 430 kts 258°
2026-05-07 20:05 51.13340 12.02804 32179 ft 429 kts 258°
2026-05-07 20:05 51.12693 11.98109 31526 ft 428 kts 258°
2026-05-07 20:06 51.12045 11.93493 30899 ft 427 kts 258°
2026-05-07 20:06 51.11392 11.88879 30274 ft 433 kts 258°
2026-05-07 20:06 51.10711 11.84084 29566 ft 453 kts 258°
2026-05-07 20:06 51.10013 11.79192 28851 ft 452 kts 258°
2026-05-07 20:07 51.09316 11.74336 28165 ft 448 kts 258°
2026-05-07 20:07 51.08624 11.69517 27490 ft 447 kts 258°
2026-05-07 20:07 51.07927 11.64682 26829 ft 448 kts 258°
2026-05-07 20:07 51.07231 11.59867 26179 ft 445 kts 258°
2026-05-07 20:08 51.06764 11.56647 25754 ft 442 kts 258°
2026-05-07 20:08 51.06076 11.51912 25132 ft 437 kts 258°
2026-05-07 20:08 51.05395 11.47238 24526 ft 432 kts 258°
2026-05-07 20:08 51.04719 11.42613 23935 ft 427 kts 258°
2026-05-07 20:09 51.04045 11.38018 23293 ft 425 kts 257°
2026-05-07 20:09 51.03380 11.33490 22613 ft 430 kts 257°
2026-05-07 20:09 51.02689 11.28800 22196 ft 430 kts 257°
2026-05-07 20:10 51.01323 11.19578 22102 ft 429 kts 257°
2026-05-07 20:10 51.00646 11.15024 22105 ft 429 kts 257°
2026-05-07 20:10 50.99946 11.10359 22101 ft 429 kts 256°
2026-05-07 20:10 50.98908 11.05929 21968 ft 429 kts 245°
2026-05-07 20:11 50.97499 11.01765 21687 ft 428 kts 241°
2026-05-07 20:11 50.96007 10.97693 21401 ft 425 kts 240°
2026-05-07 20:11 50.94535 10.93631 21115 ft 424 kts 241°
2026-05-07 20:11 50.93122 10.89619 20835 ft 422 kts 242°
2026-05-07 20:12 50.91700 10.85495 20555 ft 420 kts 242°
2026-05-07 20:12 50.90332 10.81482 20285 ft 419 kts 242°
2026-05-07 20:12 50.88955 10.77427 19995 ft 417 kts 242°
2026-05-07 20:12 50.87567 10.73337 19719 ft 415 kts 242°
2026-05-07 20:13 50.86204 10.69331 19447 ft 413 kts 242°
2026-05-07 20:13 50.84842 10.65332 19185 ft 412 kts 242°
2026-05-07 20:13 50.83499 10.61399 18920 ft 411 kts 242°
2026-05-07 20:13 50.82144 10.57437 18657 ft 409 kts 242°
2026-05-07 20:14 50.80790 10.53483 18394 ft 408 kts 242°
2026-05-07 20:14 50.79438 10.49545 18096 ft 407 kts 242°
2026-05-07 20:14 50.78092 10.45629 17796 ft 405 kts 242°
2026-05-07 20:14 50.76750 10.41730 17500 ft 403 kts 242°
2026-05-07 20:15 50.75411 10.37845 17210 ft 402 kts 242°
2026-05-07 20:15 50.74075 10.33977 16918 ft 400 kts 242°
2026-05-07 20:15 50.72744 10.30129 16634 ft 398 kts 242°
2026-05-07 20:15 50.71419 10.26301 16351 ft 397 kts 242°
2026-05-07 20:16 50.70096 10.22485 16066 ft 395 kts 242°
2026-05-07 20:16 50.68778 10.18693 15787 ft 394 kts 242°
2026-05-07 20:16 50.67464 10.14915 15511 ft 392 kts 242°
2026-05-07 20:16 50.66153 10.11153 15242 ft 391 kts 242°
2026-05-07 20:17 50.64847 10.07411 14969 ft 389 kts 242°
2026-05-07 20:17 50.63661 10.03598 14703 ft 387 kts 246°
2026-05-07 20:17 50.62497 9.99790 14503 ft 386 kts 245°
2026-05-07 20:17 50.61330 9.96002 14310 ft 384 kts 245°
2026-05-07 20:18 50.60172 9.92208 14115 ft 383 kts 245°
2026-05-07 20:18 50.59031 9.88429 13923 ft 382 kts 245°
2026-05-07 20:18 50.57896 9.84651 13715 ft 381 kts 246°
2026-05-07 20:18 50.56769 9.80893 13499 ft 380 kts 245°
2026-05-07 20:19 50.55643 9.77140 13294 ft 379 kts 245°
2026-05-07 20:19 50.54518 9.73395 13066 ft 378 kts 245°
2026-05-07 20:19 50.53395 9.69664 12863 ft 377 kts 245°
2026-05-07 20:19 50.52272 9.65940 12649 ft 376 kts 245°
2026-05-07 20:20 50.51154 9.62236 12455 ft 375 kts 245°
2026-05-07 20:20 50.50035 9.58537 12226 ft 374 kts 245°
2026-05-07 20:20 50.48919 9.54852 12028 ft 373 kts 245°
2026-05-07 20:20 50.47805 9.51183 11822 ft 372 kts 245°
2026-05-07 20:21 50.46695 9.47531 11617 ft 371 kts 245°
2026-05-07 20:21 50.45586 9.43887 11415 ft 369 kts 245°
2026-05-07 20:21 50.44478 9.40254 11212 ft 368 kts 245°
2026-05-07 20:21 50.43383 9.36667 11019 ft 368 kts 245°
2026-05-07 20:22 50.42280 9.33057 10817 ft 366 kts 245°
2026-05-07 20:22 50.41180 9.29465 10625 ft 366 kts 245°
2026-05-07 20:22 50.40080 9.25876 10430 ft 365 kts 245°
2026-05-07 20:22 50.38998 9.22354 10230 ft 352 kts 245°
2026-05-07 20:23 50.37956 9.18967 10071 ft 337 kts 245°
2026-05-07 20:23 50.36961 9.15735 9930 ft 323 kts 245°
2026-05-07 20:23 50.36005 9.12635 9793 ft 309 kts 245°
2026-05-07 20:23 50.35091 9.09677 9648 ft 296 kts 245°
2026-05-07 20:24 50.34213 9.06839 9512 ft 284 kts 245°
2026-05-07 20:24 50.33362 9.04086 9376 ft 282 kts 245°
2026-05-07 20:24 50.32502 9.01307 9246 ft 283 kts 245°
2026-05-07 20:24 50.31646 8.98545 9111 ft 281 kts 245°
2026-05-07 20:25 50.30794 8.95800 8979 ft 281 kts 245°
2026-05-07 20:25 50.29941 8.93053 8844 ft 280 kts 245°
2026-05-07 20:25 50.29089 8.90314 8714 ft 280 kts 245°
2026-05-07 20:25 50.28238 8.87585 8581 ft 279 kts 245°
2026-05-07 20:26 50.27388 8.84861 8456 ft 278 kts 245°
2026-05-07 20:26 50.26539 8.82138 8323 ft 278 kts 245°
2026-05-07 20:26 50.25704 8.79468 8198 ft 277 kts 245°
2026-05-07 20:26 50.24858 8.76763 8066 ft 276 kts 245°
2026-05-07 20:27 50.24014 8.74069 7931 ft 276 kts 245°
2026-05-07 20:27 50.23173 8.71385 7816 ft 275 kts 245°
2026-05-07 20:27 50.22331 8.68702 7674 ft 275 kts 245°
2026-05-07 20:27 50.21491 8.66029 7560 ft 274 kts 245°
2026-05-07 20:28 50.20652 8.63361 7440 ft 273 kts 244°
2026-05-07 20:28 50.19814 8.60699 7302 ft 272 kts 244°
2026-05-07 20:28 50.18977 8.58045 7186 ft 272 kts 244°
2026-05-07 20:28 50.18142 8.55400 7059 ft 272 kts 244°
2026-05-07 20:29 50.17308 8.52759 6931 ft 271 kts 244°
2026-05-07 20:29 50.16476 8.50129 6816 ft 270 kts 244°
2026-05-07 20:29 50.15646 8.47506 6689 ft 270 kts 244°
2026-05-07 20:29 50.14817 8.44891 6575 ft 269 kts 244°
2026-05-07 20:30 50.13988 8.42278 6451 ft 269 kts 244°
2026-05-07 20:30 50.13159 8.39670 6340 ft 268 kts 244°
2026-05-07 20:30 50.12331 8.37066 6249 ft 268 kts 244°
2026-05-07 20:30 50.11504 8.34465 6180 ft 268 kts 244°
2026-05-07 20:31 50.10674 8.31861 6102 ft 268 kts 244°
2026-05-07 20:31 50.09843 8.29257 6032 ft 268 kts 244°
2026-05-07 20:31 50.09013 8.26657 5946 ft 268 kts 244°
2026-05-07 20:31 50.08184 8.24062 5868 ft 268 kts 244°
2026-05-07 20:32 50.07353 8.21464 5791 ft 268 kts 244°
2026-05-07 20:32 50.06521 8.18868 5712 ft 268 kts 244°
2026-05-07 20:32 50.05689 8.16271 5635 ft 268 kts 244°
2026-05-07 20:32 50.04856 8.13676 5549 ft 268 kts 244°
2026-05-07 20:33 50.04022 8.11083 5480 ft 268 kts 244°
2026-05-07 20:33 50.03188 8.08490 5420 ft 266 kts 244°
2026-05-07 20:33 50.02379 8.05975 5385 ft 253 kts 244°
2026-05-07 20:33 50.01588 8.03519 5358 ft 256 kts 244°
2026-05-07 20:34 50.00791 8.01040 5332 ft 255 kts 245°
2026-05-07 20:34 50.00125 7.98487 5313 ft 255 kts 250°
2026-05-07 20:34 49.99498 7.95905 5279 ft 255 kts 250°
2026-05-07 20:34 49.98849 7.93385 5242 ft 246 kts 241°
2026-05-07 20:35 49.97716 7.91541 5166 ft 232 kts 209°
2026-05-07 20:35 49.96219 7.90946 5120 ft 218 kts 175°
2026-05-07 20:35 49.94833 7.91611 5060 ft 205 kts 152°
2026-05-07 20:35 49.93745 7.93039 5021 ft 208 kts 126°
2026-05-07 20:36 49.92920 7.94912 4995 ft 217 kts 116°
2026-05-07 20:36 49.92437 7.97101 4995 ft 216 kts 103°
2026-05-07 20:36 49.92149 7.99410 4993 ft 215 kts 91°
2026-05-07 20:36 49.92291 8.01706 4997 ft 214 kts 75°
2026-05-07 20:37 49.92713 8.03890 4996 ft 214 kts 69°
2026-05-07 20:37 49.93231 8.06052 4999 ft 214 kts 68°
2026-05-07 20:37 49.93752 8.08209 4996 ft 214 kts 68°
2026-05-07 20:37 49.94272 8.10372 4995 ft 214 kts 68°
2026-05-07 20:38 49.94790 8.12530 4997 ft 214 kts 68°
2026-05-07 20:38 49.95305 8.14676 4994 ft 206 kts 68°
2026-05-07 20:38 49.95778 8.16652 4867 ft 188 kts 68°
2026-05-07 20:38 49.96241 8.18576 4595 ft 191 kts 68°
2026-05-07 20:39 49.96707 8.20519 4310 ft 189 kts 68°
2026-05-07 20:39 49.97158 8.22398 4050 ft 188 kts 68°
2026-05-07 20:39 49.97613 8.24296 3787 ft 187 kts 68°
2026-05-07 20:39 49.98066 8.26184 3537 ft 186 kts 68°
2026-05-07 20:40 49.98517 8.28062 3279 ft 185 kts 69°
2026-05-07 20:40 49.98965 8.29929 3023 ft 184 kts 69°
2026-05-07 20:40 49.99394 8.31722 2789 ft 170 kts 69°
2026-05-07 20:40 49.99793 8.33384 2555 ft 154 kts 69°
2026-05-07 20:41 50.00147 8.34864 2360 ft 140 kts 69°
2026-05-07 20:41 50.00486 8.36278 2169 ft 139 kts 69°
2026-05-07 20:41 50.00822 8.37676 1983 ft 137 kts 69°
2026-05-07 20:41 50.01153 8.39068 1827 ft 137 kts 70°
2026-05-07 20:42 50.01481 8.40459 1640 ft 137 kts 70°
2026-05-07 20:42 50.01806 8.41854 1422 ft 137 kts 70°
2026-05-07 20:42 50.02136 8.43229 1202 ft 138 kts 68°
2026-05-07 20:42 50.02495 8.44611 1015 ft 138 kts 67°
2026-05-07 20:43 50.02816 8.46002 837 ft 136 kts 70°
2026-05-07 20:43 50.03137 8.47381 695 ft 135 kts 69°
2026-05-07 20:43 50.03471 8.48749 526 ft 135 kts 69°
2026-05-07 20:43 50.03796 8.50108 368 ft 134 kts 69°
2026-05-07 20:44 50.04088 8.51315 351 ft 95 kts 68°
2026-05-07 20:44 50.04231 8.51955 347 ft 30 kts 79°
2026-05-07 20:44 50.04222 8.52272 352 ft 29 kts 99°
2026-05-07 20:44 50.04191 8.52578 349 ft 28 kts 97°
2026-05-07 20:45 50.04244 8.52863 351 ft 28 kts 69°
2026-05-07 20:45 50.04314 8.53147 352 ft 28 kts 69°
2026-05-07 20:45 50.04382 8.53428 345 ft 29 kts 71°
2026-05-07 20:45 50.04412 8.53749 353 ft 29 kts 84°
2026-05-07 20:46 50.04433 8.54069 347 ft 30 kts 84°
2026-05-07 20:46 50.04453 8.54395 345 ft 31 kts 85°
2026-05-07 20:46 50.04380 8.54693 354 ft 30 kts 132°
2026-05-07 20:46 50.04194 8.54839 350 ft 28 kts 160°
2026-05-07 20:47 50.04081 8.54903 345 ft 17 kts 160°
2026-05-07 20:47 50.03975 8.54967 353 ft 14 kts 158°
2026-05-07 20:47 50.03890 8.55018 351 ft 14 kts 159°
2026-05-07 20:47 50.03855 8.55141 354 ft 14 kts 71°
2026-05-07 20:48 50.03893 8.55297 351 ft 17 kts 69°
2026-05-07 20:48 50.03937 8.55474 349 ft 18 kts 69°
2026-05-07 20:48 50.03982 8.55671 347 ft 20 kts 70°
2026-05-07 20:48 50.04033 8.55885 353 ft 22 kts 69°
2026-05-07 20:49 50.04087 8.56108 350 ft 22 kts 69°
2026-05-07 20:49 50.04138 8.56285 347 ft 13 kts 38°
2026-05-07 20:49 50.04207 8.56260 349 ft 11 kts 336°
2026-05-07 20:49 50.04285 8.56203 355 ft 13 kts 317°
2026-05-07 20:50 50.04317 8.56072 354 ft 14 kts 331°
2026-05-07 20:50 50.04418 8.56035 349 ft 15 kts 18°
2026-05-07 20:50 50.04461 8.56154 350 ft 9 kts 69°
2026-05-07 20:50 50.04476 8.56259 347 ft 10 kts 110°
2026-05-07 20:51 50.04439 8.56270 348 ft 6 kts 165°
2026-05-07 20:51 50.04427 8.56277 353 ft 0 kts 154°